Time,TemperatureF,DewpointF,PressureIn,WindDirection,WindDirectionDegrees,WindSpeedMPH,WindSpeedGustMPH,Humidity,HourlyPrecipIn,Conditions,Clouds,dailyrainin,SoftwareType,DateUTC
2013-02-14 00:00:00,40.4,38.5,30.42,WSW,243,0.0,0.0,93,0.00,BKN,,0.00,WeatherDisplay:10.37,2013-02-14 08:00:00,
2013-02-14 00:05:00,40.4,38.5,30.42,WSW,243,0.0,0.0,93,0.00,BKN,,0.00,WeatherDisplay:10.37,2013-02-14 08:05:00,
2013-02-14 00:10:00,40.4,38.5,30.41,WSW,243,0.0,0.0,93,0.00,BKN,,0.00,WeatherDisplay:10.37,2013-02-14 08:10:00,
2013-02-14 00:15:00,40.5,38.9,30.41,WSW,243,0.0,0.0,94,0.00,BKN,,0.00,WeatherDisplay:10.37,2013-02-14 08:15:00,
2013-02-14 00:20:00,40.4,38.8,30.41,WSW,243,0.0,0.0,94,0.00,BKN,,0.00,WeatherDisplay:10.37,2013-02-14 08:20:00,
2013-02-14 00:25:00,40.4,38.8,30.41,WSW,243,0.0,0.0,94,0.00,OVC,,0.00,WeatherDisplay:10.37,2013-02-14 08:25:00,
2013-02-14 00:30:00,40.5,38.9,30.41,WSW,243,1.1,1.1,94,0.00,OVC,,0.00,WeatherDisplay:10.37,2013-02-14 08:30:00,
2013-02-14 00:35:00,40.4,38.8,30.41,WSW,243,0.0,0.0,94,0.00,OVC,,0.00,WeatherDisplay:10.37,2013-02-14 08:35:00,
2013-02-14 00:40:00,40.4,38.8,30.41,WSW,243,0.0,0.0,94,0.00,OVC,,0.00,WeatherDisplay:10.37,2013-02-14 08:40:00,
2013-02-14 00:45:00,40.4,38.8,30.41,WSW,243,0.0,0.0,94,0.00,OVC,,0.00,WeatherDisplay:10.37,2013-02-14 08:45:00,
2013-02-14 00:50:00,40.5,38.9,30.41,WSW,243,0.0,0.0,94,0.00,OVC,,0.00,WeatherDisplay:10.37,2013-02-14 08:50:00,
2013-02-14 00:55:00,40.5,38.9,30.41,SSE,153,2.3,2.3,94,0.00,OVC,,0.00,WeatherDisplay:10.37,2013-02-14 08:55:00,
2013-02-14 01:00:00,40.5,38.9,30.41,SSE,153,0.0,0.0,94,0.00,OVC,,0.00,WeatherDisplay:10.37,2013-02-14 09:00:00,
2013-02-14 01:05:00,40.5,38.9,30.41,SSE,153,0.0,0.0,94,0.00,OVC,,0.00,WeatherDisplay:10.37,2013-02-14 09:05:00,
2013-02-14 01:10:00,40.4,38.8,30.41,SSE,153,0.0,0.0,94,0.00,OVC,,0.00,WeatherDisplay:10.37,2013-02-14 09:10:00,
2013-02-14 01:15:00,40.4,38.8,30.42,SSE,153,0.0,0.0,94,0.00,OVC,,0.00,WeatherDisplay:10.37,2013-02-14 09:15:00,
2013-02-14 01:20:00,40.4,38.8,30.41,SSE,153,0.0,0.0,94,0.00,OVC,,0.00,WeatherDisplay:10.37,2013-02-14 09:20:00,
2013-02-14 01:25:00,40.3,38.7,30.41,SSE,153,0.0,0.0,94,0.00,OVC,,0.00,WeatherDisplay:10.37,2013-02-14 09:25:00,
2013-02-14 01:30:00,40.3,38.7,30.41,SSE,153,0.0,0.0,94,0.00,OVC,,0.00,WeatherDisplay:10.37,2013-02-14 09:30:00,
2013-02-14 01:35:00,40.3,38.7,30.42,SSE,153,0.0,0.0,94,0.00,OVC,,0.00,WeatherDisplay:10.37,2013-02-14 09:35:00,
2013-02-14 01:40:00,40.3,38.7,30.42,SSE,153,0.0,0.0,94,0.00,OVC,,0.00,WeatherDisplay:10.37,2013-02-14 09:40:00,
2013-02-14 01:45:00,40.3,38.7,30.42,SSE,153,0.0,0.0,94,0.00,OVC,,0.00,WeatherDisplay:10.37,2013-02-14 09:45:00,
2013-02-14 01:50:00,40.3,38.7,30.42,SSE,153,0.0,0.0,94,0.00,OVC,,0.00,WeatherDisplay:10.37,2013-02-14 09:50:00,
2013-02-14 01:55:00,40.3,39.0,30.41,SSE,153,0.0,0.0,95,0.00,OVC,,0.00,WeatherDisplay:10.37,2013-02-14 09:55:00,
2013-02-14 02:00:00,40.4,38.8,30.42,SSE,153,0.0,0.0,94,0.00,OVC,,0.00,WeatherDisplay:10.37,2013-02-14 10:00:00,
2013-02-14 02:05:00,40.4,38.8,30.42,SSE,153,0.0,0.0,94,0.00,OVC,,0.00,WeatherDisplay:10.37,2013-02-14 10:05:00,
2013-02-14 02:10:00,40.4,38.8,30.42,SSE,153,0.0,0.0,94,0.00,OVC,,0.00,WeatherDisplay:10.37,2013-02-14 10:10:00,
2013-02-14 02:15:00,40.4,38.8,30.42,SSE,153,0.0,0.0,94,0.00,OVC,,0.00,WeatherDisplay:10.37,2013-02-14 10:15:00,
2013-02-14 02:20:00,40.4,38.8,30.42,SSE,153,0.0,0.0,94,0.00,OVC,,0.00,WeatherDisplay:10.37,2013-02-14 10:20:00,
2013-02-14 02:25:00,40.3,39.0,30.42,SSE,153,0.0,0.0,95,0.00,OVC,,0.00,WeatherDisplay:10.37,2013-02-14 10:25:00,
2013-02-14 02:30:00,40.4,39.1,30.42,SSE,153,0.0,0.0,95,0.00,OVC,,0.00,WeatherDisplay:10.37,2013-02-14 10:30:00,
2013-02-14 02:35:00,40.4,39.1,30.42,SSE,153,0.0,0.0,95,0.00,OVC,,0.00,WeatherDisplay:10.37,2013-02-14 10:35:00,
2013-02-14 02:40:00,40.3,39.0,30.42,SSE,153,0.0,0.0,95,0.00,OVC,,0.00,WeatherDisplay:10.37,2013-02-14 10:40:00,
2013-02-14 02:45:00,40.4,39.1,30.42,SSE,153,0.0,0.0,95,0.00,OVC,,0.00,WeatherDisplay:10.37,2013-02-14 10:45:00,
2013-02-14 02:50:00,40.4,39.1,30.42,SSE,153,0.0,0.0,95,0.00,OVC,,0.00,WeatherDisplay:10.37,2013-02-14 10:50:00,
2013-02-14 02:55:00,40.4,39.1,30.42,SSE,153,0.0,0.0,95,0.00,OVC,,0.00,WeatherDisplay:10.37,2013-02-14 10:55:00,
2013-02-14 03:00:00,40.4,39.1,30.42,SSE,153,0.0,0.0,95,0.00,OVC,,0.00,WeatherDisplay:10.37,2013-02-14 11:00:00,
2013-02-14 03:05:00,40.4,39.1,30.42,SSE,153,0.0,0.0,95,0.00,OVC,,0.00,WeatherDisplay:10.37,2013-02-14 11:05:00,
2013-02-14 03:10:00,40.4,39.1,30.42,SSE,153,0.0,0.0,95,0.00,OVC,,0.00,WeatherDisplay:10.37,2013-02-14 11:10:00,
2013-02-14 03:15:00,40.5,39.2,30.42,SSE,153,0.0,0.0,95,0.00,OVC,,0.00,WeatherDisplay:10.37,2013-02-14 11:15:00,
2013-02-14 03:20:00,40.5,39.2,30.43,SSE,153,0.0,0.0,95,0.00,OVC,,0.00,WeatherDisplay:10.37,2013-02-14 11:20:00,
2013-02-14 03:25:00,40.5,39.2,30.43,SSE,153,0.0,0.0,95,0.01,-RA,,0.01,WeatherDisplay:10.37,2013-02-14 11:25:00,
2013-02-14 03:30:00,40.5,39.2,30.43,SSE,153,0.0,0.0,95,0.01,-RA,,0.01,WeatherDisplay:10.37,2013-02-14 11:30:00,
2013-02-14 03:35:00,40.4,39.1,30.43,SSE,153,0.0,0.0,95,0.01,-RA,,0.01,WeatherDisplay:10.37,2013-02-14 11:35:00,
2013-02-14 03:40:00,40.4,39.1,30.43,SSE,153,0.0,0.0,95,0.01,-RA,,0.01,WeatherDisplay:10.37,2013-02-14 11:40:00,
2013-02-14 03:45:00,40.5,39.2,30.43,SSE,153,0.0,0.0,95,0.01,-RA,,0.01,WeatherDisplay:10.37,2013-02-14 11:45:00,
2013-02-14 03:50:00,40.5,39.2,30.43,SSE,153,0.0,0.0,95,0.01,-RA,,0.01,WeatherDisplay:10.37,2013-02-14 11:50:00,
2013-02-14 03:55:00,40.4,39.1,30.43,SSE,153,0.0,0.0,95,0.02,-RA,,0.02,WeatherDisplay:10.37,2013-02-14 11:55:00,
2013-02-14 04:00:00,40.5,39.2,30.44,SSE,153,0.0,0.0,95,0.02,-RA,,0.02,WeatherDisplay:10.37,2013-02-14 12:00:00,
2013-02-14 04:05:00,40.5,39.2,30.44,SSE,153,0.0,0.0,95,0.02,-RA,,0.02,WeatherDisplay:10.37,2013-02-14 12:05:00,
2013-02-14 04:10:00,40.5,39.2,30.44,SSE,153,0.0,0.0,95,0.02,-RA,,0.02,WeatherDisplay:10.37,2013-02-14 12:10:00,
2013-02-14 04:15:00,40.5,39.2,30.44,SSE,153,0.0,0.0,95,0.02,-RA,,0.02,WeatherDisplay:10.37,2013-02-14 12:15:00,
2013-02-14 04:20:00,40.5,39.2,30.44,SSE,153,0.0,0.0,95,0.03,-RA,,0.03,WeatherDisplay:10.37,2013-02-14 12:20:00,
2013-02-14 04:25:00,40.5,39.2,30.44,SSE,153,0.0,0.0,95,0.03,-RA,,0.04,WeatherDisplay:10.37,2013-02-14 12:25:00,
2013-02-14 04:30:00,40.5,39.2,30.44,SSE,153,0.0,0.0,95,0.03,-RA,,0.04,WeatherDisplay:10.37,2013-02-14 12:30:00,
2013-02-14 04:35:00,40.5,39.2,30.44,SSE,153,0.0,0.0,95,0.03,-RA,,0.04,WeatherDisplay:10.37,2013-02-14 12:35:00,
2013-02-14 04:40:00,40.5,39.2,30.44,SSE,153,0.0,0.0,95,0.04,-RA,,0.05,WeatherDisplay:10.37,2013-02-14 12:40:00,
2013-02-14 04:45:00,40.6,39.3,30.44,SSE,153,0.0,0.0,95,0.04,-RA,,0.05,WeatherDisplay:10.37,2013-02-14 12:45:00,
2013-02-14 04:50:00,40.6,39.5,30.44,SSE,153,0.0,0.0,96,0.05,-RA,,0.06,WeatherDisplay:10.37,2013-02-14 12:50:00,
2013-02-14 04:55:00,40.6,39.5,30.44,SSE,153,0.0,0.0,96,0.04,-RA,,0.06,WeatherDisplay:10.37,2013-02-14 12:55:00,
2013-02-14 05:00:00,40.6,39.5,30.44,SSE,153,0.0,0.0,96,0.04,-RA,,0.06,WeatherDisplay:10.37,2013-02-14 13:00:00,
2013-02-14 05:05:00,40.6,39.5,30.44,SSE,153,0.0,0.0,96,0.04,-RA,,0.06,WeatherDisplay:10.37,2013-02-14 13:05:00,
2013-02-14 05:10:00,40.7,39.6,30.44,SSE,153,0.0,0.0,96,0.03,-RA,,0.06,WeatherDisplay:10.37,2013-02-14 13:10:00,
2013-02-14 05:15:00,40.6,39.5,30.44,SSE,153,0.0,0.0,96,0.03,-RA,,0.06,WeatherDisplay:10.37,2013-02-14 13:15:00,
2013-02-14 05:20:00,40.6,39.5,30.44,SSE,153,0.0,0.0,96,0.02,-RA,,0.06,WeatherDisplay:10.37,2013-02-14 13:20:00,
2013-02-14 05:25:00,40.6,39.5,30.44,SSE,153,0.0,0.0,96,0.02,-RA,,0.06,WeatherDisplay:10.37,2013-02-14 13:25:00,
2013-02-14 05:30:00,40.6,39.5,30.44,SSE,153,0.0,0.0,96,0.02,-RA,,0.06,WeatherDisplay:10.37,2013-02-14 13:30:00,
2013-02-14 05:35:00,40.6,39.5,30.44,SSE,153,0.0,0.0,96,0.02,-RA,,0.06,WeatherDisplay:10.37,2013-02-14 13:35:00,
2013-02-14 05:40:00,40.6,39.5,30.44,SSE,153,0.0,0.0,96,0.01,-RA,,0.06,WeatherDisplay:10.37,2013-02-14 13:40:00,
2013-02-14 05:45:00,40.6,39.5,30.45,SSE,153,0.0,0.0,96,0.01,-RA,,0.06,WeatherDisplay:10.37,2013-02-14 13:45:00,
2013-02-14 05:50:00,40.6,39.5,30.45,SSE,153,0.0,0.0,96,0.00,-RA,,0.06,WeatherDisplay:10.37,2013-02-14 13:50:00,
2013-02-14 05:55:00,40.5,39.4,30.45,SSE,153,0.0,0.0,96,0.00,-RA,,0.06,WeatherDisplay:10.37,2013-02-14 13:55:00,
2013-02-14 06:00:00,40.6,39.5,30.45,SSE,153,0.0,0.0,96,0.00,-RA,,0.06,WeatherDisplay:10.37,2013-02-14 14:00:00,
2013-02-14 06:05:00,40.6,39.5,30.45,SSE,153,0.0,0.0,96,0.00,-RA,,0.06,WeatherDisplay:10.37,2013-02-14 14:05:00,
2013-02-14 06:10:00,40.6,39.5,30.45,SSE,153,0.0,0.0,96,0.00,-RA,,0.06,WeatherDisplay:10.37,2013-02-14 14:10:00,
2013-02-14 06:15:00,40.6,39.5,30.45,SSE,153,0.0,0.0,96,0.00,-RA,,0.06,WeatherDisplay:10.37,2013-02-14 14:15:00,
2013-02-14 06:20:00,40.6,39.5,30.45,SSE,153,0.0,0.0,96,0.00,-RA,,0.06,WeatherDisplay:10.37,2013-02-14 14:20:00,
2013-02-14 06:25:00,40.5,39.4,30.45,SSE,153,0.0,0.0,96,0.01,-RA,,0.06,WeatherDisplay:10.37,2013-02-14 14:25:00,
2013-02-14 06:30:00,40.5,39.4,30.45,SSE,153,0.0,0.0,96,0.01,-RA,,0.06,WeatherDisplay:10.37,2013-02-14 14:30:00,
2013-02-14 06:35:00,40.5,39.4,30.45,SSE,153,0.0,0.0,96,0.01,-RA,,0.06,WeatherDisplay:10.37,2013-02-14 14:35:00,
2013-02-14 06:40:00,40.5,39.4,30.46,SSE,153,0.0,0.0,96,0.01,-RA,,0.06,WeatherDisplay:10.37,2013-02-14 14:40:00,
2013-02-14 06:45:00,40.5,39.4,30.46,SSE,153,0.0,0.0,96,0.01,-RA,,0.06,WeatherDisplay:10.37,2013-02-14 14:45:00,
2013-02-14 06:50:00,40.5,39.4,30.46,SSE,153,0.0,0.0,96,0.01,-RA,,0.06,WeatherDisplay:10.37,2013-02-14 14:50:00,
2013-02-14 06:55:00,40.5,39.4,30.46,SSE,153,0.0,0.0,96,0.01,-RA,,0.06,WeatherDisplay:10.37,2013-02-14 14:55:00,
2013-02-14 07:00:00,40.5,39.4,30.47,SSE,153,0.0,0.0,96,0.01,-RA,,0.06,WeatherDisplay:10.37,2013-02-14 15:00:00,
2013-02-14 07:05:00,40.5,39.4,30.46,SSE,153,0.0,0.0,96,0.01,-RA,,0.06,WeatherDisplay:10.37,2013-02-14 15:05:00,
2013-02-14 07:10:00,40.5,39.4,30.46,SSE,153,0.0,0.0,96,0.01,-RA,,0.06,WeatherDisplay:10.37,2013-02-14 15:10:00,
2013-02-14 07:15:00,40.5,39.4,30.46,SSE,153,0.0,0.0,96,0.01,-RA,,0.06,WeatherDisplay:10.37,2013-02-14 15:15:00,
2013-02-14 07:20:00,40.5,39.4,30.46,SSE,153,0.0,0.0,96,0.01,-RA,,0.06,WeatherDisplay:10.37,2013-02-14 15:20:00,
2013-02-14 07:25:00,40.4,39.4,30.46,SSE,153,0.0,0.0,96,0.00,-RA,,0.06,WeatherDisplay:10.37,2013-02-14 15:25:00,
2013-02-14 07:30:00,40.4,39.4,30.46,SSE,153,0.0,0.0,96,0.00,-RA,,0.06,WeatherDisplay:10.37,2013-02-14 15:30:00,
2013-02-14 07:35:00,40.4,39.4,30.46,SSE,153,0.0,0.0,96,0.00,-RA,,0.06,WeatherDisplay:10.37,2013-02-14 15:35:00,
2013-02-14 07:40:00,40.4,39.4,30.46,SSE,153,0.0,0.0,96,0.00,-RA,,0.06,WeatherDisplay:10.37,2013-02-14 15:40:00,
2013-02-14 07:45:00,40.4,39.4,30.46,SSE,153,0.0,0.0,96,0.00,-RA,,0.06,WeatherDisplay:10.37,2013-02-14 15:45:00,
2013-02-14 07:50:00,40.4,39.4,30.46,SSE,153,0.0,0.0,96,0.00,-RA,,0.06,WeatherDisplay:10.37,2013-02-14 15:50:00,
2013-02-14 07:55:00,40.4,39.4,30.46,SSE,153,0.0,0.0,96,0.00,-RA,,0.06,WeatherDisplay:10.37,2013-02-14 15:55:00,
2013-02-14 08:00:00,40.4,39.4,30.46,SSE,153,0.0,0.0,96,0.00,-RA,,0.06,WeatherDisplay:10.37,2013-02-14 16:00:00,
2013-02-14 08:05:00,40.4,39.4,30.47,SSE,153,0.0,0.0,96,0.00,-DZ,,0.06,WeatherDisplay:10.37,2013-02-14 16:05:00,
2013-02-14 08:10:00,40.4,39.6,30.47,SSE,153,0.0,0.0,97,0.00,-DZ,,0.06,WeatherDisplay:10.37,2013-02-14 16:10:00,
2013-02-14 08:15:00,40.4,39.6,30.47,SSE,153,0.0,0.0,97,0.00,-DZ,,0.06,WeatherDisplay:10.37,2013-02-14 16:15:00,
2013-02-14 08:20:00,40.5,39.4,30.47,SSE,153,0.0,0.0,96,0.00,-DZ,,0.06,WeatherDisplay:10.37,2013-02-14 16:20:00,
2013-02-14 08:25:00,40.5,39.4,30.47,SSE,153,0.0,0.0,96,0.00,-DZ,,0.06,WeatherDisplay:10.37,2013-02-14 16:25:00,
2013-02-14 08:30:00,40.5,39.4,30.47,SSE,153,0.0,0.0,96,0.00,-DZ,,0.06,WeatherDisplay:10.37,2013-02-14 16:30:00,
2013-02-14 08:35:00,40.5,39.4,30.47,SSE,153,0.0,0.0,96,0.00,-DZ,,0.06,WeatherDisplay:10.37,2013-02-14 16:35:00,
2013-02-14 08:40:00,40.5,39.7,30.48,SSE,153,0.0,0.0,97,0.00,-DZ,,0.06,WeatherDisplay:10.37,2013-02-14 16:40:00,
2013-02-14 08:45:00,40.6,39.8,30.48,NNE,26,2.3,2.3,97,0.00,-DZ,,0.06,WeatherDisplay:10.37,2013-02-14 16:45:00,
2013-02-14 08:50:00,40.7,39.9,30.48,North,11,2.3,2.3,97,0.00,-DZ,,0.06,WeatherDisplay:10.37,2013-02-14 16:50:00,
2013-02-14 08:55:00,40.7,39.9,30.48,North,11,0.0,0.0,97,0.00,-DZ,,0.06,WeatherDisplay:10.37,2013-02-14 16:55:00,
2013-02-14 09:00:00,40.8,40.0,30.48,North,11,0.0,0.0,97,0.01,-DZ,,0.07,WeatherDisplay:10.37,2013-02-14 17:00:00,
2013-02-14 09:05:00,40.8,40.0,30.48,North,11,1.1,1.1,97,0.01,-DZ,,0.07,WeatherDisplay:10.37,2013-02-14 17:05:00,
2013-02-14 09:10:00,40.8,40.0,30.48,North,11,0.0,0.0,97,0.01,-DZ,,0.07,WeatherDisplay:10.37,2013-02-14 17:10:00,
2013-02-14 09:15:00,40.8,40.0,30.48,North,11,0.0,0.0,97,0.01,-DZ,,0.07,WeatherDisplay:10.37,2013-02-14 17:15:00,
2013-02-14 09:20:00,40.7,39.9,30.48,North,11,0.0,0.0,97,0.01,-DZ,,0.07,WeatherDisplay:10.37,2013-02-14 17:20:00,
2013-02-14 09:25:00,40.7,39.9,30.48,North,11,0.0,0.0,97,0.01,-DZ,,0.07,WeatherDisplay:10.37,2013-02-14 17:25:00,
2013-02-14 09:30:00,40.6,39.8,30.48,North,11,0.0,0.0,97,0.01,-DZ,,0.07,WeatherDisplay:10.37,2013-02-14 17:30:00,
2013-02-14 09:35:00,40.6,39.8,30.48,North,11,1.1,1.1,97,0.01,-DZ,,0.07,WeatherDisplay:10.37,2013-02-14 17:35:00,
2013-02-14 09:40:00,40.5,39.7,30.47,NNE,19,0.0,0.0,97,0.01,-DZ,,0.07,WeatherDisplay:10.37,2013-02-14 17:40:00,
2013-02-14 09:45:00,40.6,39.8,30.47,NNE,19,0.0,0.0,97,0.01,-DZ,,0.07,WeatherDisplay:10.37,2013-02-14 17:45:00,
2013-02-14 09:50:00,40.7,39.9,30.47,NNE,19,0.0,0.0,97,0.01,-DZ,,0.07,WeatherDisplay:10.37,2013-02-14 17:50:00,
2013-02-14 09:55:00,40.7,39.9,30.48,NNE,19,1.1,0.0,97,0.01,-DZ,,0.07,WeatherDisplay:10.37,2013-02-14 17:55:00,
2013-02-14 10:00:00,40.8,40.0,30.48,NNE,17,0.0,0.0,97,0.00,-DZ,,0.07,WeatherDisplay:10.37,2013-02-14 18:00:00,
2013-02-14 10:05:00,40.7,39.9,30.49,NNE,17,1.1,0.0,97,0.00,-DZ,,0.07,WeatherDisplay:10.37,2013-02-14 18:05:00,
2013-02-14 10:10:00,40.9,40.1,30.49,NNE,17,0.0,0.0,97,0.00,-DZ,,0.07,WeatherDisplay:10.37,2013-02-14 18:10:00,
2013-02-14 10:15:00,40.9,40.1,30.49,NNE,17,0.0,0.0,97,0.00,-DZ,,0.07,WeatherDisplay:10.37,2013-02-14 18:15:00,
2013-02-14 10:20:00,41.1,40.3,30.49,NNE,17,0.0,0.0,97,0.00,-DZ,,0.07,WeatherDisplay:10.37,2013-02-14 18:20:00,
2013-02-14 10:25:00,41.1,40.3,30.50,NNE,17,0.0,0.0,97,0.00,-DZ,,0.07,WeatherDisplay:10.37,2013-02-14 18:25:00,
2013-02-14 10:30:00,41.2,40.4,30.49,NNE,17,0.0,0.0,97,0.00,-DZ,,0.07,WeatherDisplay:10.37,2013-02-14 18:30:00,
2013-02-14 10:35:00,41.2,40.4,30.49,NNE,17,0.0,0.0,97,0.00,-DZ,,0.07,WeatherDisplay:10.37,2013-02-14 18:35:00,
2013-02-14 10:40:00,41.2,40.4,30.49,NNE,17,1.1,0.0,97,0.00,-DZ,,0.07,WeatherDisplay:10.37,2013-02-14 18:40:00,
2013-02-14 10:45:00,41.2,40.4,30.49,NNE,17,0.0,0.0,97,0.00,-DZ,,0.07,WeatherDisplay:10.37,2013-02-14 18:45:00,
2013-02-14 10:50:00,41.5,40.7,30.49,NNE,17,0.0,0.0,97,0.00,-DZ,,0.07,WeatherDisplay:10.37,2013-02-14 18:50:00,
2013-02-14 10:55:00,41.5,40.7,30.49,NNE,17,0.0,0.0,97,0.00,-DZ,,0.07,WeatherDisplay:10.37,2013-02-14 18:55:00,
2013-02-14 11:00:00,41.6,40.8,30.49,NNE,17,0.0,0.0,97,0.00,-DZ,,0.07,WeatherDisplay:10.37,2013-02-14 19:00:00,
2013-02-14 11:05:00,41.7,40.9,30.49,NNE,17,1.1,0.0,97,0.00,-DZ,,0.07,WeatherDisplay:10.37,2013-02-14 19:05:00,
2013-02-14 11:10:00,41.8,41.0,30.49,NNE,17,0.0,0.0,97,0.00,-DZ,,0.08,WeatherDisplay:10.37,2013-02-14 19:10:00,
2013-02-14 11:15:00,41.7,40.9,30.49,NNE,17,0.0,0.0,97,0.01,-DZ,,0.08,WeatherDisplay:10.37,2013-02-14 19:15:00,
2013-02-14 11:20:00,41.7,40.9,30.49,NNE,17,0.0,0.0,97,0.01,-DZ,,0.08,WeatherDisplay:10.37,2013-02-14 19:20:00,
2013-02-14 11:25:00,41.8,41.0,30.49,NNE,17,1.1,0.0,97,0.01,-DZ,,0.08,WeatherDisplay:10.37,2013-02-14 19:25:00,
2013-02-14 11:30:00,41.9,41.1,30.50,NNE,17,0.0,0.0,97,0.01,-DZ,,0.08,WeatherDisplay:10.37,2013-02-14 19:30:00,
2013-02-14 11:35:00,42.0,41.2,30.50,NNE,17,1.1,1.1,97,0.01,-DZ,,0.08,WeatherDisplay:10.37,2013-02-14 19:35:00,
2013-02-14 11:40:00,42.1,41.3,30.50,NNE,17,0.0,0.0,97,0.01,-DZ,,0.08,WeatherDisplay:10.37,2013-02-14 19:40:00,
2013-02-14 11:45:00,42.3,41.5,30.50,NNE,17,0.0,0.0,97,0.01,-DZ,,0.08,WeatherDisplay:10.37,2013-02-14 19:45:00,
2013-02-14 11:50:00,42.3,41.5,30.49,NNE,17,0.0,0.0,97,0.01,-DZ,,0.08,WeatherDisplay:10.37,2013-02-14 19:50:00,
2013-02-14 11:55:00,42.2,41.4,30.49,NNE,17,1.1,1.1,97,0.01,-DZ,,0.08,WeatherDisplay:10.37,2013-02-14 19:55:00,
2013-02-14 12:00:00,42.2,41.4,30.49,NNE,17,0.0,0.0,97,0.01,-DZ,,0.08,WeatherDisplay:10.37,2013-02-14 20:00:00,
2013-02-14 12:05:00,42.3,41.5,30.49,NNE,17,1.1,0.0,97,0.01,-DZ,,0.08,WeatherDisplay:10.37,2013-02-14 20:05:00,
2013-02-14 12:10:00,42.3,41.5,30.49,North,360,1.1,1.1,97,0.01,-DZ,,0.08,WeatherDisplay:10.37,2013-02-14 20:10:00,
2013-02-14 12:15:00,42.4,41.6,30.49,North,360,0.0,0.0,97,0.00,-DZ,,0.08,WeatherDisplay:10.37,2013-02-14 20:15:00,
2013-02-14 12:20:00,42.4,41.6,30.49,North,360,0.0,0.0,97,0.00,-DZ,,0.08,WeatherDisplay:10.37,2013-02-14 20:20:00,
2013-02-14 12:25:00,42.4,41.6,30.49,North,360,1.1,1.1,97,0.00,-DZ,,0.08,WeatherDisplay:10.37,2013-02-14 20:25:00,
2013-02-14 12:30:00,42.5,42.0,30.50,North,360,1.1,1.1,98,0.00,-DZ,,0.08,WeatherDisplay:10.37,2013-02-14 20:30:00,
2013-02-14 12:35:00,42.5,41.7,30.49,North,360,0.0,0.0,97,0.00,-DZ,,0.08,WeatherDisplay:10.37,2013-02-14 20:35:00,
2013-02-14 12:40:00,42.6,41.8,30.49,North,360,0.0,0.0,97,0.00,-DZ,,0.08,WeatherDisplay:10.37,2013-02-14 20:40:00,
2013-02-14 12:45:00,42.6,41.8,30.50,North,360,1.1,1.1,97,0.00,-DZ,,0.08,WeatherDisplay:10.37,2013-02-14 20:45:00,
2013-02-14 12:50:00,42.7,41.9,30.50,North,360,0.0,0.0,97,0.00,-DZ,,0.08,WeatherDisplay:10.37,2013-02-14 20:50:00,
2013-02-14 12:55:00,42.7,41.9,30.50,North,360,0.0,0.0,97,0.00,-RA,,0.08,WeatherDisplay:10.37,2013-02-14 20:55:00,
2013-02-14 13:00:00,42.6,41.8,30.50,North,360,2.3,2.3,97,0.00,-RA,,0.08,WeatherDisplay:10.37,2013-02-14 21:00:00,
2013-02-14 13:05:00,42.7,41.9,30.50,North,360,1.1,1.1,97,0.00,-RA,,0.08,WeatherDisplay:10.37,2013-02-14 21:05:00,
2013-02-14 13:10:00,42.7,41.9,30.50,North,360,1.1,0.0,97,0.00,-RA,,0.08,WeatherDisplay:10.37,2013-02-14 21:10:00,
2013-02-14 13:15:00,42.7,41.9,30.50,North,360,0.0,0.0,97,0.00,-RA,,0.08,WeatherDisplay:10.37,2013-02-14 21:15:00,
2013-02-14 13:20:00,42.7,41.9,30.50,North,360,0.0,0.0,97,0.00,-RA,,0.08,WeatherDisplay:10.37,2013-02-14 21:20:00,
2013-02-14 13:25:00,42.8,42.0,30.50,North,360,0.0,0.0,97,0.00,-RA,,0.08,WeatherDisplay:10.37,2013-02-14 21:25:00,
2013-02-14 13:30:00,42.9,42.1,30.50,North,360,0.0,0.0,97,0.00,-RA,,0.08,WeatherDisplay:10.37,2013-02-14 21:30:00,
2013-02-14 13:35:00,42.9,42.1,30.50,North,360,0.0,0.0,97,0.00,-RA,,0.08,WeatherDisplay:10.37,2013-02-14 21:35:00,
2013-02-14 13:40:00,42.9,42.1,30.50,North,360,0.0,0.0,97,0.00,-RA,,0.08,WeatherDisplay:10.37,2013-02-14 21:40:00,
2013-02-14 13:45:00,42.9,42.1,30.50,North,360,0.0,0.0,97,0.00,-RA,,0.08,WeatherDisplay:10.37,2013-02-14 21:45:00,
2013-02-14 13:50:00,42.9,42.1,30.50,North,360,0.0,0.0,97,0.00,-RA,,0.08,WeatherDisplay:10.37,2013-02-14 21:50:00,
2013-02-14 13:55:00,42.9,42.1,30.50,North,360,0.0,0.0,97,0.00,-RA,,0.08,WeatherDisplay:10.37,2013-02-14 21:55:00,
2013-02-14 14:00:00,42.9,42.1,30.50,North,360,0.0,0.0,97,0.00,-RA,,0.08,WeatherDisplay:10.37,2013-02-14 22:00:00,
2013-02-14 14:05:00,42.9,42.1,30.50,North,360,0.0,0.0,97,0.00,-RA,,0.08,WeatherDisplay:10.37,2013-02-14 22:05:00,
2013-02-14 14:10:00,43.0,42.2,30.50,North,360,0.0,0.0,97,0.00,-RA,,0.08,WeatherDisplay:10.37,2013-02-14 22:10:00,
2013-02-14 14:15:00,42.9,42.1,30.50,North,360,0.0,0.0,97,0.00,-RA,,0.08,WeatherDisplay:10.37,2013-02-14 22:15:00,
2013-02-14 14:20:00,42.8,42.0,30.50,North,360,0.0,0.0,97,0.00,-RA,,0.08,WeatherDisplay:10.37,2013-02-14 22:20:00,
2013-02-14 14:25:00,42.8,42.0,30.50,North,360,0.0,0.0,97,0.00,-RA,,0.08,WeatherDisplay:10.37,2013-02-14 22:25:00,
2013-02-14 14:30:00,42.8,42.0,30.50,North,360,0.0,0.0,97,0.00,-RA,,0.08,WeatherDisplay:10.37,2013-02-14 22:30:00,
2013-02-14 14:35:00,42.8,42.0,30.50,North,360,0.0,0.0,97,0.00,-RA,,0.08,WeatherDisplay:10.37,2013-02-14 22:35:00,
2013-02-14 14:40:00,42.8,42.0,30.50,North,360,0.0,0.0,97,0.00,-RA,,0.08,WeatherDisplay:10.37,2013-02-14 22:40:00,
2013-02-14 14:45:00,42.8,42.0,30.50,North,360,0.0,0.0,97,0.00,-RA,,0.08,WeatherDisplay:10.37,2013-02-14 22:45:00,
2013-02-14 14:50:00,42.8,42.0,30.50,North,360,0.0,0.0,97,0.00,-RA,,0.08,WeatherDisplay:10.37,2013-02-14 22:50:00,
2013-02-14 14:55:00,42.8,42.0,30.50,North,360,0.0,0.0,97,0.00,-RA,,0.08,WeatherDisplay:10.37,2013-02-14 22:55:00,
2013-02-14 15:00:00,42.9,42.1,30.50,North,360,0.0,0.0,97,0.00,-RA,,0.08,WeatherDisplay:10.37,2013-02-14 23:00:00,
2013-02-14 15:05:00,42.9,42.1,30.50,North,360,0.0,0.0,97,0.00,-RA,,0.08,WeatherDisplay:10.37,2013-02-14 23:05:00,
2013-02-14 15:10:00,43.0,42.2,30.50,North,360,0.0,0.0,97,0.00,-RA,,0.08,WeatherDisplay:10.37,2013-02-14 23:10:00,
2013-02-14 15:15:00,43.1,42.3,30.50,North,360,0.0,0.0,97,0.00,-RA,,0.08,WeatherDisplay:10.37,2013-02-14 23:15:00,
2013-02-14 15:20:00,43.1,42.3,30.50,North,360,0.0,0.0,97,0.00,-RA,,0.08,WeatherDisplay:10.37,2013-02-14 23:20:00,
2013-02-14 15:25:00,43.1,42.3,30.50,North,360,0.0,0.0,97,0.00,-DZ,,0.08,WeatherDisplay:10.37,2013-02-14 23:25:00,
2013-02-14 15:30:00,43.1,42.3,30.50,North,360,0.0,0.0,97,0.00,-DZ,,0.08,WeatherDisplay:10.37,2013-02-14 23:30:00,
2013-02-14 15:35:00,43.2,42.4,30.50,North,360,0.0,0.0,97,0.00,-DZ,,0.08,WeatherDisplay:10.37,2013-02-14 23:35:00,
2013-02-14 15:40:00,43.2,42.4,30.50,North,360,0.0,0.0,97,0.00,-DZ,,0.08,WeatherDisplay:10.37,2013-02-14 23:40:00,
2013-02-14 15:45:00,43.2,42.4,30.50,North,360,0.0,0.0,97,0.00,-DZ,,0.08,WeatherDisplay:10.37,2013-02-14 23:45:00,
2013-02-14 15:50:00,43.2,42.4,30.50,North,360,0.0,0.0,97,0.00,-DZ,,0.08,WeatherDisplay:10.37,2013-02-14 23:50:00,
2013-02-14 15:55:00,43.2,42.4,30.50,North,360,0.0,0.0,97,0.00,-DZ,,0.08,WeatherDisplay:10.37,2013-02-14 23:55:00,
2013-02-14 16:00:00,43.2,42.4,30.50,North,360,0.0,0.0,97,0.00,-DZ,,0.08,WeatherDisplay:10.37,2013-02-15 00:00:00,
2013-02-14 16:05:00,43.3,42.5,30.50,North,360,0.0,0.0,97,0.00,-DZ,,0.08,WeatherDisplay:10.37,2013-02-15 00:05:00,
2013-02-14 16:10:00,43.4,42.6,30.50,North,360,0.0,0.0,97,0.00,-DZ,,0.08,WeatherDisplay:10.37,2013-02-15 00:10:00,
2013-02-14 16:15:00,43.4,42.6,30.50,North,360,0.0,0.0,97,0.00,-DZ,,0.08,WeatherDisplay:10.37,2013-02-15 00:15:00,
2013-02-14 16:20:00,43.4,42.6,30.50,North,360,2.3,2.3,97,0.00,-DZ,,0.08,WeatherDisplay:10.37,2013-02-15 00:20:00,
2013-02-14 16:25:00,43.3,42.5,30.51,North,360,1.1,1.1,97,0.00,-DZ,,0.08,WeatherDisplay:10.37,2013-02-15 00:25:00,
2013-02-14 16:30:00,43.3,42.5,30.51,North,360,0.0,0.0,97,0.00,-DZ,,0.08,WeatherDisplay:10.37,2013-02-15 00:30:00,
2013-02-14 16:35:00,43.2,42.4,30.50,North,360,1.0,1.0,97,0.00,-DZ,,0.08,WeatherDisplay:10.37,2013-02-15 00:35:00,
2013-02-14 16:40:00,43.1,42.3,30.50,North,360,0.0,0.0,97,0.00,-DZ,,0.08,WeatherDisplay:10.37,2013-02-15 00:40:00,
2013-02-14 16:45:00,43.1,42.3,30.50,North,360,0.0,0.0,97,0.00,-DZ,,0.08,WeatherDisplay:10.37,2013-02-15 00:45:00,
2013-02-14 16:50:00,43.1,42.3,30.50,North,360,0.0,0.0,97,0.00,-DZ,,0.08,WeatherDisplay:10.37,2013-02-15 00:50:00,
2013-02-14 16:55:00,43.1,42.3,30.50,North,360,0.0,0.0,97,0.00,-DZ,,0.08,WeatherDisplay:10.37,2013-02-15 00:55:00,
2013-02-14 17:00:00,43.0,42.2,30.50,North,360,0.0,0.0,97,0.00,-DZ,,0.08,WeatherDisplay:10.37,2013-02-15 01:00:00,
2013-02-14 17:05:00,43.0,42.2,30.50,North,360,0.0,0.0,97,0.00,-DZ,,0.08,WeatherDisplay:10.37,2013-02-15 01:05:00,
2013-02-14 17:10:00,43.0,42.2,30.50,North,360,0.0,0.0,97,0.00,-DZ,,0.08,WeatherDisplay:10.37,2013-02-15 01:10:00,
2013-02-14 17:15:00,42.9,42.1,30.50,North,360,0.0,0.0,97,0.00,-DZ,,0.08,WeatherDisplay:10.37,2013-02-15 01:15:00,
2013-02-14 17:20:00,42.9,42.1,30.50,North,360,0.0,0.0,97,0.00,-DZ,,0.08,WeatherDisplay:10.37,2013-02-15 01:20:00,
2013-02-14 17:25:00,42.9,42.1,30.50,North,360,0.0,0.0,97,0.00,-DZ,,0.08,WeatherDisplay:10.37,2013-02-15 01:25:00,
2013-02-14 17:30:00,42.9,42.1,30.50,North,360,0.0,0.0,97,0.00,-DZ,,0.08,WeatherDisplay:10.37,2013-02-15 01:30:00,
2013-02-14 17:35:00,42.9,42.1,30.50,North,360,0.0,0.0,97,0.00,-DZ,,0.08,WeatherDisplay:10.37,2013-02-15 01:35:00,
2013-02-14 17:40:00,42.9,42.1,30.50,North,360,0.0,0.0,97,0.00,-DZ,,0.08,WeatherDisplay:10.37,2013-02-15 01:40:00,
2013-02-14 17:45:00,42.8,42.0,30.50,North,360,0.0,0.0,97,0.00,-DZ,,0.08,WeatherDisplay:10.37,2013-02-15 01:45:00,
2013-02-14 17:50:00,42.8,42.0,30.50,North,360,0.0,0.0,97,0.00,-DZ,,0.08,WeatherDisplay:10.37,2013-02-15 01:50:00,
2013-02-14 17:55:00,42.8,42.0,30.50,North,360,0.0,0.0,97,0.00,-DZ,,0.08,WeatherDisplay:10.37,2013-02-15 01:55:00,
2013-02-14 18:00:00,42.8,42.0,30.50,North,360,0.0,0.0,97,0.00,-DZ,,0.08,WeatherDisplay:10.37,2013-02-15 02:00:00,
2013-02-14 18:05:00,42.8,42.0,30.50,North,360,0.0,0.0,97,0.00,OVC,,0.08,WeatherDisplay:10.37,2013-02-15 02:05:00,
2013-02-14 18:10:00,42.8,42.0,30.50,North,360,0.0,0.0,97,0.00,OVC,,0.08,WeatherDisplay:10.37,2013-02-15 02:10:00,
2013-02-14 18:15:00,42.8,42.0,30.50,North,360,0.0,0.0,97,0.00,OVC,,0.08,WeatherDisplay:10.37,2013-02-15 02:15:00,
2013-02-14 18:20:00,42.8,42.0,30.50,North,360,0.0,0.0,97,0.00,OVC,,0.08,WeatherDisplay:10.37,2013-02-15 02:20:00,
2013-02-14 18:25:00,42.8,42.0,30.50,North,360,0.0,0.0,97,0.00,OVC,,0.08,WeatherDisplay:10.37,2013-02-15 02:25:00,
2013-02-14 18:30:00,42.8,42.0,30.50,North,360,0.0,0.0,97,0.00,OVC,,0.08,WeatherDisplay:10.37,2013-02-15 02:30:00,
2013-02-14 18:35:00,42.9,42.1,30.51,North,360,0.0,0.0,97,0.00,OVC,,0.08,WeatherDisplay:10.37,2013-02-15 02:35:00,
2013-02-14 18:40:00,42.9,42.1,30.51,North,360,0.0,0.0,97,0.00,OVC,,0.08,WeatherDisplay:10.37,2013-02-15 02:40:00,
2013-02-14 18:45:00,42.9,42.1,30.51,North,360,0.0,0.0,97,0.00,OVC,,0.08,WeatherDisplay:10.37,2013-02-15 02:45:00,
2013-02-14 18:50:00,42.9,42.1,30.51,North,360,0.0,0.0,97,0.00,OVC,,0.08,WeatherDisplay:10.37,2013-02-15 02:50:00,
2013-02-14 18:55:00,42.9,42.1,30.50,North,360,0.0,0.0,97,0.00,OVC,,0.08,WeatherDisplay:10.37,2013-02-15 02:55:00,
2013-02-14 19:00:00,42.9,42.1,30.50,North,360,0.0,0.0,97,0.00,OVC,,0.08,WeatherDisplay:10.37,2013-02-15 03:00:00,
2013-02-14 19:05:00,42.8,42.0,30.51,North,360,0.0,0.0,97,0.00,OVC,,0.08,WeatherDisplay:10.37,2013-02-15 03:05:00,
2013-02-14 19:10:00,42.8,42.0,30.51,North,360,0.0,0.0,97,0.00,OVC,,0.08,WeatherDisplay:10.37,2013-02-15 03:10:00,
2013-02-14 19:15:00,42.8,42.0,30.51,North,360,0.0,0.0,97,0.00,OVC,,0.08,WeatherDisplay:10.37,2013-02-15 03:15:00,
2013-02-14 19:20:00,42.8,42.0,30.51,North,360,0.0,0.0,97,0.00,OVC,,0.08,WeatherDisplay:10.37,2013-02-15 03:20:00,
2013-02-14 19:25:00,42.8,42.0,30.51,North,360,0.0,0.0,97,0.00,OVC,,0.08,WeatherDisplay:10.37,2013-02-15 03:25:00,
2013-02-14 19:30:00,42.8,42.0,30.51,North,360,0.0,0.0,97,0.00,OVC,,0.08,WeatherDisplay:10.37,2013-02-15 03:30:00,
2013-02-14 19:35:00,42.8,42.0,30.51,North,360,0.0,0.0,97,0.00,OVC,,0.08,WeatherDisplay:10.37,2013-02-15 03:35:00,
2013-02-14 19:40:00,42.8,42.0,30.51,North,360,0.0,0.0,97,0.00,OVC,,0.08,WeatherDisplay:10.37,2013-02-15 03:40:00,
2013-02-14 19:45:00,42.8,42.0,30.51,North,360,0.0,0.0,97,0.00,OVC,,0.08,WeatherDisplay:10.37,2013-02-15 03:45:00,
2013-02-14 19:50:00,42.8,42.0,30.51,North,360,0.0,0.0,97,0.00,OVC,,0.08,WeatherDisplay:10.37,2013-02-15 03:50:00,
2013-02-14 19:55:00,42.8,42.0,30.51,North,360,0.0,0.0,97,0.00,OVC,,0.08,WeatherDisplay:10.37,2013-02-15 03:55:00,
2013-02-14 20:00:00,42.8,42.0,30.51,North,360,0.0,0.0,97,0.00,OVC,,0.08,WeatherDisplay:10.37,2013-02-15 04:00:00,
2013-02-14 20:05:00,42.8,42.0,30.51,North,360,0.0,0.0,97,0.00,OVC,,0.08,WeatherDisplay:10.37,2013-02-15 04:05:00,
2013-02-14 20:10:00,42.8,42.0,30.51,North,360,0.0,0.0,97,0.00,OVC,,0.08,WeatherDisplay:10.37,2013-02-15 04:10:00,
2013-02-14 20:15:00,42.7,41.9,30.51,North,360,0.0,0.0,97,0.00,OVC,,0.08,WeatherDisplay:10.37,2013-02-15 04:15:00,
2013-02-14 20:20:00,42.7,41.9,30.51,North,360,0.0,0.0,97,0.00,OVC,,0.08,WeatherDisplay:10.37,2013-02-15 04:20:00,
2013-02-14 20:25:00,42.6,41.5,30.51,North,360,0.0,0.0,96,0.00,-DZ,,0.08,WeatherDisplay:10.37,2013-02-15 04:25:00,
2013-02-14 20:30:00,42.5,41.4,30.51,North,360,0.0,0.0,96,0.00,-DZ,,0.08,WeatherDisplay:10.37,2013-02-15 04:30:00,
2013-02-14 20:35:00,42.4,41.6,30.51,North,360,0.0,0.0,97,0.00,-DZ,,0.08,WeatherDisplay:10.37,2013-02-15 04:35:00,
2013-02-14 20:40:00,42.3,41.5,30.51,North,360,0.0,0.0,97,0.00,-DZ,,0.08,WeatherDisplay:10.37,2013-02-15 04:40:00,
2013-02-14 20:45:00,42.3,41.5,30.51,North,360,0.0,0.0,97,0.00,-DZ,,0.08,WeatherDisplay:10.37,2013-02-15 04:45:00,
2013-02-14 20:50:00,42.2,41.4,30.51,North,360,0.0,0.0,97,0.00,-DZ,,0.08,WeatherDisplay:10.37,2013-02-15 04:50:00,
2013-02-14 20:55:00,42.2,41.1,30.51,North,360,0.0,0.0,96,0.00,-DZ,,0.08,WeatherDisplay:10.37,2013-02-15 04:55:00,
2013-02-14 21:00:00,42.2,41.1,30.51,North,360,0.0,0.0,96,0.00,-DZ,,0.08,WeatherDisplay:10.37,2013-02-15 05:00:00,
2013-02-14 21:05:00,42.1,41.0,30.51,North,360,0.0,0.0,96,0.01,-DZ,,0.09,WeatherDisplay:10.37,2013-02-15 05:05:00,
2013-02-14 21:10:00,42.1,41.0,30.51,North,360,0.0,0.0,96,0.01,-DZ,,0.09,WeatherDisplay:10.37,2013-02-15 05:10:00,
2013-02-14 21:15:00,42.0,40.9,30.51,North,360,0.0,0.0,96,0.01,-DZ,,0.09,WeatherDisplay:10.37,2013-02-15 05:15:00,
2013-02-14 21:20:00,42.0,40.9,30.51,North,360,0.0,0.0,96,0.01,-DZ,,0.09,WeatherDisplay:10.37,2013-02-15 05:20:00,
2013-02-14 21:25:00,41.9,40.8,30.51,North,360,0.0,0.0,96,0.01,-DZ,,0.09,WeatherDisplay:10.37,2013-02-15 05:25:00,
2013-02-14 21:30:00,41.9,41.1,30.51,North,360,0.0,0.0,97,0.01,-DZ,,0.09,WeatherDisplay:10.37,2013-02-15 05:30:00,
2013-02-14 21:35:00,41.9,41.1,30.51,North,360,0.0,0.0,97,0.01,-DZ,,0.09,WeatherDisplay:10.37,2013-02-15 05:35:00,
2013-02-14 21:40:00,41.9,41.1,30.51,North,360,0.0,0.0,97,0.01,-DZ,,0.09,WeatherDisplay:10.37,2013-02-15 05:40:00,
2013-02-14 21:45:00,41.9,41.1,30.51,North,360,0.0,0.0,97,0.01,-DZ,,0.09,WeatherDisplay:10.37,2013-02-15 05:45:00,
2013-02-14 21:50:00,41.9,41.1,30.51,North,360,0.0,0.0,97,0.01,-DZ,,0.09,WeatherDisplay:10.37,2013-02-15 05:50:00,
2013-02-14 21:55:00,41.9,41.1,30.51,North,360,0.0,0.0,97,0.01,-DZ,,0.09,WeatherDisplay:10.37,2013-02-15 05:55:00,
2013-02-14 22:00:00,41.9,41.1,30.51,North,360,0.0,0.0,97,0.01,-DZ,,0.09,WeatherDisplay:10.37,2013-02-15 06:00:00,
2013-02-14 22:05:00,41.9,41.1,30.51,North,360,0.0,0.0,97,0.01,-DZ,,0.09,WeatherDisplay:10.37,2013-02-15 06:05:00,
2013-02-14 22:10:00,41.9,41.1,30.52,North,360,0.0,0.0,97,0.00,-DZ,,0.09,WeatherDisplay:10.37,2013-02-15 06:10:00,
2013-02-14 22:15:00,41.9,41.1,30.52,North,360,0.0,0.0,97,0.00,-DZ,,0.09,WeatherDisplay:10.37,2013-02-15 06:15:00,
2013-02-14 22:20:00,41.9,41.1,30.52,North,360,0.0,0.0,97,0.00,-DZ,,0.09,WeatherDisplay:10.37,2013-02-15 06:20:00,
2013-02-14 22:25:00,41.9,41.1,30.52,North,360,0.0,0.0,97,0.00,-DZ,,0.09,WeatherDisplay:10.37,2013-02-15 06:25:00,
2013-02-14 22:30:00,41.9,41.1,30.52,North,360,0.0,0.0,97,0.00,-DZ,,0.09,WeatherDisplay:10.37,2013-02-15 06:30:00,
2013-02-14 22:35:00,41.9,41.1,30.52,North,360,0.0,0.0,97,0.00,-DZ,,0.09,WeatherDisplay:10.37,2013-02-15 06:35:00,
2013-02-14 22:40:00,41.9,41.1,30.52,North,360,0.0,0.0,97,0.00,-DZ,,0.09,WeatherDisplay:10.37,2013-02-15 06:40:00,
2013-02-14 22:45:00,41.9,41.1,30.52,North,360,0.0,0.0,97,0.00,-DZ,,0.09,WeatherDisplay:10.37,2013-02-15 06:45:00,
2013-02-14 22:50:00,41.9,41.1,30.52,North,360,0.0,0.0,97,0.00,-DZ,,0.09,WeatherDisplay:10.37,2013-02-15 06:50:00,
2013-02-14 22:55:00,41.9,41.1,30.52,North,360,0.0,0.0,97,0.00,-DZ,,0.09,WeatherDisplay:10.37,2013-02-15 06:55:00,
2013-02-14 23:00:00,41.9,41.1,30.52,North,360,0.0,0.0,97,0.00,-DZ,,0.09,WeatherDisplay:10.37,2013-02-15 07:00:00,
2013-02-14 23:05:00,41.9,41.1,30.52,North,360,0.0,0.0,97,0.01,-DZ,,0.09,WeatherDisplay:10.37,2013-02-15 07:05:00,
2013-02-14 23:10:00,41.9,41.1,30.53,North,360,0.0,0.0,97,0.01,-DZ,,0.09,WeatherDisplay:10.37,2013-02-15 07:10:00,
2013-02-14 23:15:00,41.9,41.1,30.52,North,360,0.0,0.0,97,0.01,-DZ,,0.09,WeatherDisplay:10.37,2013-02-15 07:15:00,
2013-02-14 23:20:00,41.9,41.1,30.52,North,360,0.0,0.0,97,0.01,-DZ,,0.09,WeatherDisplay:10.37,2013-02-15 07:20:00,
2013-02-14 23:25:00,41.9,41.1,30.52,North,360,0.0,0.0,97,0.01,-DZ,,0.09,WeatherDisplay:10.37,2013-02-15 07:25:00,
2013-02-14 23:30:00,41.9,41.1,30.52,North,360,0.0,0.0,97,0.01,-DZ,,0.09,WeatherDisplay:10.37,2013-02-15 07:30:00,
2013-02-14 23:35:00,41.8,41.0,30.52,North,360,0.0,0.0,97,0.01,-DZ,,0.09,WeatherDisplay:10.37,2013-02-15 07:35:00,
2013-02-14 23:40:00,41.9,41.1,30.52,North,360,0.0,0.0,97,0.01,-DZ,,0.09,WeatherDisplay:10.37,2013-02-15 07:40:00,
2013-02-14 23:45:00,41.8,41.0,30.52,North,360,0.0,0.0,97,0.01,-DZ,,0.09,WeatherDisplay:10.37,2013-02-15 07:45:00,
2013-02-14 23:50:00,41.8,41.0,30.52,North,360,0.0,0.0,97,0.01,-DZ,,0.09,WeatherDisplay:10.37,2013-02-15 07:50:00,
2013-02-14 23:55:00,41.8,41.0,30.52,North,360,0.0,0.0,97,0.01,-DZ,,0.09,WeatherDisplay:10.37,2013-02-15 07:55:00,